Torna al catalogo

ATLAS 5 CENTAUR DEB

LostHEO
NORAD 55851·DEBRIS·🇺🇸 United States

Lanciato Oct 17, 2018 da Cape Canaveral Space Force Station

Loading…

Prossimi Passaggi (prossime 24 ore)

TLE

ObsoletoSource: Space-Track

Epoca: Jul 4, 2024, 02:32 UTC

1 55851U 18079HD  24186.10602101 -.00000098  00000-0  00000+0 0  9998
2 55851  11.4280 115.1728 4525142 156.9762 232.0885  1.76798504 12420

Traccia ATLAS 5 CENTAUR DEB in tempo reale con AllMySat

Download on the App Store